Printer-friendly version

IAU Minor Planet Center

Minor Planet Center

MPEC 2007-F56 : 2007 FP3

The following Minor Planet Electronic Circular may be linked-to from your own Web pages, but must not otherwise be redistributed electronically.


Read MPEC 2007-F55 Read MPEC 2007-F57


M.P.E.C. 2007-F56                                Issued 2007 Mar. 21, 16:14 UT

     The Minor Planet Electronic Circulars contain information on unusual
         minor planets and routine data on comets.  They are published
   on behalf of Commission 20 of the International Astronomical Union by the
          Minor Planet Center, Smithsonian Astrophysical Observatory,
                          Cambridge, MA 02138, U.S.A.

             Prepared using the Tamkin Foundation Computer Network

                              MPC@CFA.HARVARD.EDU
          URL http://cfa-www.harvard.edu/iau/mpc.html  ISSN 1523-6714

                                   2007 FP3

Observations:
     K07F03P* C2007 03 20.28164 11 21 09.32 +03 00 20.1          20.8 V EF056G96
     K07F03P  C2007 03 20.28888 11 21 15.12 +02 59 39.6          21.1 V EF056G96
     K07F03P  C2007 03 20.29613 11 21 20.95 +02 58 58.0          21.5 V EF056G96
     K07F03P  C2007 03 20.30343 11 21 26.78 +02 58 16.6          21.1 V EF056G96
     K07F03P  C2007 03 20.46849 11 23 38.13 +02 43 09.6          21.3 V EF056G96
     K07F03P  C2007 03 20.46921 11 23 38.73 +02 43 05.4          21.8 V EF056G96
     K07F03P  C2007 03 20.46996 11 23 39.35 +02 43 01.3          21.2 V EF056G96
     K07F03P  C2007 03 21.21906 11 33 19.54 +01 45 43.0          20.7 V EF056G96
     K07F03P  C2007 03 21.21983 11 33 19.98 +01 45 39.9          21.1 V EF056G96
     K07F03P  C2007 03 21.22060 11 33 20.52 +01 45 35.5          21.7 V EF056G96
     K07F03P  C2007 03 21.22137 11 33 20.84 +01 45 33.3          22.1 V EF056G96

Observer details:
G96 Mt. Lemmon Survey.  Observer A. R. Gibbs.  Measurers E. C. Beshore,
    E. J. Christensen, G. J. Garradd, A. R. Gibbs, A. D. Grauer, R. E. Hill,
    R. A. Kowalski, S. M. Larson, R. H. McNaught.  1.5-m reflector + CCD.

Orbital elements:
2007 FP3                                                 Earth MOID = 0.0001 AU
Epoch 2007 Apr. 10.0 TT = JDT 2454200.5                 MPC
M  41.97211              (2000.0)            P               Q
n   0.58651841     Peri.  119.61470     -0.37514927     -0.92696425
a   1.4134538      Node   352.41877     +0.84903550     -0.34337439
e   0.4033651      Incl.    0.23715     +0.37202385     -0.15110031
P   1.68           H   28.4           G   0.15           U   7
Residuals in seconds of arc
070320 G96  0.1+  0.1-    070320 G96  0.2-  0.3+    070321 G96  0.4-  0.4+
070320 G96  0.2-  0.5+    070320 G96  0.0   0.1-    070321 G96  1.3+  0.9-
070320 G96  0.1+  0.1-    070320 G96  0.2+  0.2-    070321 G96  0.3-  0.0
070320 G96  0.1+  0.2-    070321 G96  0.6-  0.5+

Ephemeris:
2007 FP3                 a,e,i = 1.41, 0.40, 0                   q = 0.8433
Date    TT    R. A. (2000) Decl.     Delta      r     Elong.  Phase     V
2007 03 21    11 30.75   +02 03.4    0.0303   1.026   172.5     7.3    21.4
2007 03 23    11 47.80   +00 17.0    0.0415   1.038   175.1     4.7    22.0
2007 03 25    11 57.61   -00 44.3    0.0530   1.050   175.8     4.0    22.5
2007 03 27    12 03.98   -01 23.9    0.0647   1.062   175.5     4.2    23.0
2007 03 29    12 08.45   -01 51.5    0.0765   1.074   174.8     4.9    23.4
2007 03 31    12 11.79   -02 12.0    0.0886   1.087   173.7     5.8    23.8

Kyle E. Smalley              (C) Copyright 2007 MPC           M.P.E.C. 2007-F56

Read MPEC 2007-F55 Read MPEC 2007-F57


Our Web policy. Index to the CBAT/MPC/ICQ pages.


Valid HTML 4.01!